Dewpoint
53 54 54 55 56 57 57 58 59 59 60 61 61 60 61 62 63 63 63 63 64 64 64 64 64 64 64 64 65 65 64 63 61 60 59 60 63 66 65 66 64 66 64 55 57 54 53 52 51 49 52 50 50 47 44 46 45 45 39 38 38 38 38 38 36 35 33 33 31 34 35 33 32 37 37 38 37 35 39 36 39 44 45 42 51 53 55 59
52 53 54 54 55 56 57 57 58 59 60 60 61 61 60 61 62 63 63 63 63 64 64 64 64 64 64 64 64 65 64 63 61 60 60 63 65 64 64 66 65 64 62 53 56 53 53 52 51 49 51 49 50 47 45 44 45 44 41 39 37 38 36 34 33 33 32 30 27 30 33 33 30 33 36 33 32 34 36 36 38 40 39 42 51 53 53 58
52 52 53 54 54 55 56 56 57 59 59 60 61 61 61 61 61 62 62 63 63 63 64 64 64 64 64 64 64 63 63 60 60 58 60 65 65 66 64 65 65 64 55 54 54 53 54 53 52 50 51 49 47 46 45 43 44 44 43 40 38 39 36 34 33 32 31 28 27 27 29 32 32 32 37 33 30 34 32 31 36 37 37 41 48 52 53 56
51 52 52 53 53 54 55 56 57 58 59 60 60 61 60 61 61 62 62 62 63 63 64 64 64 64 63 63 63 64 62 60 56 58 60 65 65 66 65 66 66 62 57 56 54 53 55 55 53 50 51 50 48 47 44 43 42 43 42 40 40 38 37 36 34 32 29 29 28 27 29 29 31 32 35 33 30 32 33 31 32 34 31 36 45 51 53 53
51 51 52 52 52 53 54 55 56 57 58 59 60 61 60 60 61 61 62 63 63 63 63 63 63 64 64 63 63 63 59 53 55 59 60 65 65 65 65 65 65 59 59 58 55 50 54 54 52 51 51 48 48 46 44 43 42 42 40 41 41 38 38 35 33 29 27 25 27 27 27 28 31 32 33 32 30 28 29 29 30 31 31 33 47 51 53 51
50 51 52 52 52 52 53 54 55 57 58 59 60 60 60 60 60 61 61 62 63 63 63 63 63 63 63 63 63 61 57 44 56 58 61 65 65 65 65 65 64 59 57 56 52 52 51 51 51 51 51 48 46 45 45 44 43 40 40 40 41 39 38 32 31 26 26 27 28 29 28 28 28 28 30 31 31 30 33 32 35 36 38 41 46 49 52 52
50 50 51 52 53 52 52 54 55 56 57 58 59 60 60 60 60 60 61 62 62 63 63 63 63 63 62 62 61 59 55 55 58 60 63 62 65 65 64 64 63 57 56 55 52 53 52 53 52 51 48 48 46 44 46 44 42 41 40 41 40 40 39 36 29 25 25 26 27 25 26 25 27 28 29 31 31 32 32 31 30 30 37 41 45 49 49 50
51 51 51 52 53 54 54 54 55 55 57 57 58 60 60 60 60 60 61 62 62 62 63 63 62 63 62 61 57 54 54 54 61 62 62 64 64 63 63 61 57 56 54 52 52 53 52 52 51 51 49 47 44 45 45 42 41 41 41 42 39 38 40 37 33 31 29 28 26 25 25 27 27 27 28 28 29 30 32 32 30 31 31 32 36 45 46 47
51 52 52 52 53 54 53 54 54 55 56 57 58 59 60 60 60 60 60 61 62 62 62 63 62 62 62 61 55 52 50 57 61 61 61 61 62 61 60 57 55 53 52 53 53 52 52 51 51 51 48 47 46 43 43 41 40 42 42 42 41 38 39 38 35 35 32 34 30 30 32 33 28 28 25 26 27 28 29 33 33 34 34 34 34 35 42 44
51 52 51 51 53 54 54 54 55 55 56 57 57 58 59 60 60 60 60 61 61 62 62 62 62 61 60 57 54 48 56 62 62 61 62 61 62 61 58 57 54 52 53 53 52 51 51 51 51 52 50 48 49 43 44 42 39 41 42 42 41 39 38 36 37 36 34 35 32 34 37 37 30 26 31 31 29 30 28 29 29 31 33 34 34 36 37 40
50 50 50 51 51 53 53 53 54 55 55 56 57 58 59 60 60 60 60 61 61 61 62 62 62 61 57 56 51 46 61 64 62 61 62 62 61 59 57 56 54 53 54 52 52 51 52 51 52 53 51 48 48 46 43 42 43 41 41 42 40 37 37 36 37 37 33 34 34 33 34 35 32 30 31 34 29 30 28 28 28 32 31 29 30 32 39 39
50 49 49 51 51 52 52 53 54 55 56 56 57 58 59 60 60 60 60 60 61 61 62 62 61 60 58 55 52 48 62 60 62 61 62 61 62 60 60 57 54 54 54 53 52 53 52 54 53 51 47 48 45 45 42 42 41 41 39 38 38 38 38 37 37 37 35 37 34 33 33 34 34 32 34 34 34 31 30 30 30 31 32 32 33 33 37 41
50 49 49 51 52 52 52 53 54 55 56 56 56 58 59 59 60 60 60 59 61 61 61 62 61 61 58 50 52 58 61 60 61 62 62 60 59 60 59 57 56 55 53 52 50 51 51 53 53 52 55 51 46 43 43 43 42 40 40 40 39 38 37 38 39 39 35 38 35 36 37 38 38 37 36 36 35 35 33 33 33 33 32 32 33 33 34 40
50 50 49 51 52 52 51 52 54 54 55 56 56 58 58 59 60 60 60 59 60 61 61 60 61 59 55 51 57 60 60 59 61 60 59 59 57 56 56 57 59 57 54 53 54 52 54 52 57 56 54 52 45 48 44 41 40 40 41 41 40 38 37 40 39 39 36 38 36 37 37 38 39 40 40 38 35 35 35 35 34 36 36 36 36 34 36 38
49 50 50 50 51 52 52 52 53 54 54 56 56 57 58 58 59 60 60 59 60 60 60 61 60 56 52 53 59 60 63 58 57 59 59 58 57 55 56 57 56 58 60 53 51 57 57 59 55 52 51 51 49 45 41 41 40 42 40 38 41 40 38 38 40 37 37 36 37 37 38 39 40 40 41 38 36 36 37 37 37 38 38 38 38 37 35 36
49 50 50 50 51 52 52 53 53 53 54 55 56 56 57 58 59 59 60 59 59 60 61 59 58 56 52 48 52 60 59 55 54 58 59 58 57 56 56 56 56 56 57 55 55 55 56 54 53 48 49 50 50 48 44 43 41 42 41 39 40 41 39 39 39 39 40 39 38 37 38 39 38 39 40 40 37 37 38 39 39 39 39 39 38 38 37 36
50 49 50 50 51 51 52 53 53 54 54 55 56 56 57 58 59 59 59 59 58 59 58 54 54 55 48 54 59 54 54 55 56 57 59 58 58 57 54 54 54 54 54 53 55 54 53 51 52 51 50 47 49 48 45 42 41 41 42 39 41 40 39 38 39 41 43 42 37 37 38 39 40 39 39 39 39 38 38 38 38 39 39 39 40 39 38 37
50 49 50 50 50 50 51 52 53 54 54 55 55 56 57 58 59 58 57 58 59 58 57 57 55 49 47 50 47 51 54 54 55 56 57 57 58 56 55 53 54 54 52 51 51 50 51 49 46 45 48 48 47 48 44 40 41 40 40 40 41 40 42 40 39 40 41 41 39 39 37 39 40 41 41 39 39 39 39 40 40 40 39 39 39 39 38 39
50 50 50 49 50 50 51 52 52 53 54 55 56 57 58 58 58 57 54 55 52 47 44 46 46 39 37 47 51 52 54 54 55 55 55 56 56 56 56 57 55 50 48 48 48 48 51 48 47 47 43 45 45 44 43 42 41 39 40 40 40 38 38 38 40 40 40 39 39 40 39 37 38 39 40 40 40 38 38 39 39 40 40 39 39 40 40 41
50 50 50 50 50 49 51 52 52 52 53 52 53 55 53 49 48 48 53 52 50 48 50 48 48 46 46 50 48 51 55 54 54 55 55 55 54 54 53 54 52 52 49 45 48 48 49 45 43 43 43 43 45 45 44 42 43 40 40 43 38 38 37 38 38 39 40 39 39 39 40 39 39 39 38 39 39 39 39 38 38 39 40 41 41 40 41 42
49 50 50 50 49 50 51 50 52 52 52 53 51 50 45 45 42 40 47 48 51 51 49 50 49 46 44 49 50 52 51 52 55 53 54 54 54 51 50 51 49 46 48 49 47 50 50 45 43 43 43 44 44 45 44 44 43 39 37 39 38 38 36 36 36 39 38 39 38 39 38 38 38 39 39 39 39 39 39 39 39 38 39 40 40 41 42 41
48 49 49 49 50 49 50 50 52 52 52 53 52 49 49 48 52 50 49 44 49 50 49 51 52 49 53 51 54 54 53 50 50 53 55 54 53 47 50 48 46 44 49 48 47 45 43 42 44 43 44 44 44 44 43 43 43 42 38 37 37 36 38 36 37 39 38 39 38 38 37 36 37 38 38 38 39 39 39 39 39 39 39 40 40 41 41 42
48 48 48 49 49 49 49 51 52 52 51 49 46 48 46 49 50 55 52 47 46 50 48 49 49 49 49 53 54 54 49 48 49 52 53 53 51 47 48 47 45 44 46 46 41 40 36 41 44 44 44 43 42 42 43 42 41 42 38 36 36 37 35 34 37 38 38 38 36 36 36 36 36 37 37 37 37 38 40 40 40 40 40 40 40 40 41 41
48 49 49 48 49 49 50 50 51 51 49 47 49 49 50 52 53 50 47 43 41 48 47 49 50 49 49 50 54 51 48 48 49 49 54 51 48 48 47 45 44 44 43 44 43 40 38 44 48 47 45 44 42 43 43 41 40 41 40 37 35 34 34 32 33 37 38 38 38 37 36 35 35 35 35 35 36 37 38 38 39 40 42 42 44 44 43 42
48 49 49 49 50 50 50 50 48 47 48 49 49 50 50 54 54 52 46 42 43 42 49 50 50 49 51 55 56 50 49 50 48 51 53 50 47 46 44 46 43 42 42 44 43 42 41 46 48 47 47 46 45 42 42 41 40 40 40 38 36 34 32 35 35 36 34 33 37 36 32 30 30 32 33 32 33 33 36 37 37 39 39 40 40 42 43 46
48 48 49 49 50 49 50 46 45 45 47 45 45 48 49 53 53 53 46 35 32 38 47 40 49 45 53 49 54 52 50 46 52 53 53 51 50 45 44 43 43 39 41 42 41 42 42 47 46 45 46 45 45 44 41 41 39 40 37 38 37 36 34 33 35 37 33 29 31 36 31 28 28 26 25 28 32 32 32 35 38 38 37 38 39 40 40 41
48 48 49 50 50 50 46 42 46 46 45 45 46 48 53 54 55 52 41 31 29 39 38 45 43 46 51 50 51 47 38 42 52 55 53 54 51 52 44 41 43 42 42 44 42 40 44 45 45 45 43 44 44 44 43 39 37 35 44 43 37 36 35 35 36 36 34 34 35 36 35 31 31 30 29 27 26 29 32 37 37 36 36 35 35 35 36 38
48 48 49 49 50 50 45 46 47 45 41 43 46 49 54 54 53 50 39 21 21 41 37 43 44 53 50 51 50 43 46 49 45 50 53 54 52 49 48 41 40 39 41 42 35 44 43 43 43 42 42 43 41 44 47 46 42 42 44 44 42 38 37 38 37 37 36 35 32 33 38 33 32 33 33 31 29 29 30 31 34 35 35 34 34 34 37 38
48 49 49 49 49 49 46 48 45 42 44 46 49 51 53 54 51 42 30 21 36 38 49 39 51 48 48 50 47 45 46 47 41 50 53 53 52 49 43 44 40 39 42 41 35 41 43 43 43 43 42 41 42 46 47 47 44 46 46 44 44 44 43 41 41 39 40 38 33 34 33 31 30 33 32 33 31 29 28 28 27 30 34 35 34 35 35 35
49 49 49 50 50 49 48 47 44 44 47 50 51 52 53 51 43 31 23 16 38 30 41 43 44 40 46 41 40 43 44 46 49 50 50 48 48 50 48 49 42 41 43 43 40 42 43 45 44 42 42 42 43 46 47 47 47 46 47 45 45 44 43 43 43 40 38 33 34 35 34 32 28 32 30 31 33 32 31 28 28 34 35 33 33 34 37 33
49 49 49 50 47 47 47 44 45 47 50 51 52 53 49 44 33 26 21 26 37 34 42 41 38 44 43 38 37 41 44 45 45 46 43 46 46 48 48 45 48 42 41 41 41 41 42 44 43 46 46 47 46 44 47 48 47 46 44 43 41 39 41 39 37 39 33 31 36 36 34 33 29 30 33 31 31 32 31 28 28 29 31 33 34 33 34 34
49 49 50 49 47 48 45 43 44 50 52 53 52 45 42 29 32 25 21 39 28 31 36 36 41 42 41 40 39 41 41 44 46 44 41 42 41 42 43 39 42 34 34 37 35 41 38 40 43 43 45 42 43 42 44 46 47 45 43 42 34 30 34 30 34 30 32 31 33 34 35 33 31 30 31 32 31 31 32 31 29 28 28 29 30 32 33 37
49 49 49 47 49 46 46 46 47 52 52 51 47 45 33 27 20 28 29 32 26 38 36 39 39 39 40 38 37 40 43 40 45 44 42 42 42 42 44 43 43 41 32 38 37 36 37 40 41 42 42 43 42 38 39 39 42 42 39 37 32 29 29 27 30 31 31 35 36 33 36 32 32 31 33 32 32 33 33 33 34 33 33 33 33 35 33 40
50 50 47 48 47 47 47 48 51 50 52 49 44 37 31 24 23 33 29 31 31 37 39 38 38 38 38 36 37 40 39 43 43 43 41 39 39 38 41 42 42 39 40 38 35 35 31 30 37 38 36 41 40 38 39 40 40 39 39 37 34 30 29 26 29 28 30 30 32 36 34 32 30 31 31 32 33 34 34 34 35 36 36 37 37 38 37 38
48 48 47 48 48 48 47 50 53 52 50 46 37 32 25 24 29 28 29 29 34 37 37 39 37 37 37 37 38 40 40 37 42 41 41 38 37 38 38 40 42 43 40 35 37 35 33 33 38 39 38 40 39 38 40 41 39 39 40 40 36 33 37 31 32 31 31 31 31 33 33 35 30 32 33 32 32 32 33 34 34 33 33 36 37 38 38 37
49 48 48 46 48 48 47 51 52 52 48 40 33 27 25 28 24 30 29 36 37 35 37 39 37 34 33 35 39 37 40 40 41 41 39 39 38 37 39 40 41 43 41 34 37 32 33 30 39 39 37 38 37 36 41 39 32 40 41 35 36 47 41 33 32 34 33 32 29 32 33 34 34 33 33 33 33 31 31 31 30 31 34 35 36 39 38 38
47 48 46 47 47 47 48 49 51 49 45 38 32 26 31 28 34 34 36 36 36 38 38 32 33 31 31 32 34 37 39 40 40 38 35 39 38 38 38 39 42 42 40 40 38 37 31 29 39 38 36 37 37 37 38 39 46 41 35 39 43 45 45 36 29 32 31 27 29 32 31 30 31 29 32 31 30 31 31 31 31 31 32 33 38 40 41 43
46 43 42 43 44 48 49 49 50 47 38 35 30 31 31 29 32 34 38 37 38 38 36 33 32 33 30 32 33 35 38 36 38 38 35 38 34 41 38 38 40 40 42 40 35 35 33 34 38 37 37 38 38 40 39 43 43 41 39 44 37 31 31 35 31 26 25 25 26 29 29 29 30 29 28 26 28 29 29 30 30 29 31 34 35 38 40 41
45 42 37 43 47 47 49 50 46 43 37 31 30 31 31 33 36 36 37 38 37 37 34 34 31 32 32 32 33 35 35 31 37 34 33 36 31 37 37 39 39 40 42 41 34 37 35 30 36 39 38 38 37 37 32 35 42 43 44 43 44 42 36 32 31 31 29 26 25 26 28 26 31 27 26 27 28 28 26 26 28 28 28 29 30 32 34 41
41 39 37 43 49 50 50 49 42 40 35 29 30 30 33 31 34 37 39 38 37 37 33 33 34 31 32 32 34 32 34 34 35 33 33 34 32 38 36 39 38 38 37 39 35 37 32 30 27 39 40 38 35 36 31 32 35 38 39 38 40 36 42 42 35 32 29 26 25 25 24 25 26 25 25 26 25 25 24 24 27 29 30 30 31 32 36 38
42 36 38 45 47 48 49 44 38 32 33 32 33 31 32 32 35 37 40 40 37 38 34 34 32 31 33 32 32 33 32 33 33 33 32 35 32 34 37 38 39 38 37 37 35 35 32 30 26 37 37 36 37 37 34 33 33 35 33 34 35 34 32 30 28 36 32 29 27 25 24 27 26 24 23 24 26 27 28 28 30 31 28 30 33 34 33 37
38 31 36 47 50 49 42 33 33 34 32 31 30 31 31 36 35 37 39 40 38 35 38 35 34 35 34 31 32 32 32 31 32 32 33 33 33 33 37 38 38 40 36 37 34 36 33 32 27 33 35 36 37 38 39 35 34 34 33 32 35 35 34 30 25 31 33 33 31 29 28 27 29 26 25 25 25 24 24 27 27 27 27 26 29 32 35 38
36 32 46 48 48 46 41 33 33 33 31 34 35 35 37 37 36 38 36 37 33 36 35 36 33 32 34 33 32 34 32 31 33 32 32 33 36 31 37 37 38 38 37 36 37 37 35 29 25 29 34 38 39 40 39 37 40 39 37 35 34 35 34 33 30 37 31 32 30 30 28 29 30 27 25 24 25 26 25 25 26 26 26 27 30 35 36 37
40 40 40 46 45 44 37 27 29 31 31 34 35 34 36 35 36 36 35 35 33 32 32 34 34 38 33 34 32 31 32 30 33 32 31 36 32 37 38 37 37 38 35 37 35 38 30 29 25 24 29 32 34 35 37 33 37 37 36 37 35 35 37 37 34 33 30 32 32 28 25 27 32 29 29 27 26 26 25 26 29 29 29 31 32 34 36 37
41 41 42 43 47 44 34 33 31 30 31 32 32 32 34 34 37 37 34 35 37 34 34 34 34 36 34 35 33 32 32 32 31 33 34 35 34 39 36 39 37 37 37 40 37 38 31 30 26 22 21 21 22 23 25 29 32 35 38 38 37 36 36 37 32 33 29 31 33 31 28 30 30 30 28 28 27 26 27 29 30 32 33 32 33 37 37 38
35 29 33 33 36 39 37 37 37 33 31 32 31 32 34 32 35 37 35 33 34 36 34 36 36 34 34 34 33 31 32 35 33 33 32 32 33 37 39 39 37 37 40 40 38 36 31 31 27 25 20 19 22 24 29 31 32 31 34 36 37 37 38 38 36 33 30 31 30 32 32 31 31 30 30 28 28 27 26 27 28 32 33 35 36 38 40 40
39 30 29 27 33 33 33 37 36 35 31 32 29 32 31 33 34 34 36 32 35 33 35 35 35 33 34 33 31 31 34 33 35 33 32 33 36 36 41 40 38 42 40 40 39 35 33 29 31 30 26 23 24 24 33 31 31 32 33 35 36 37 37 37 34 32 33 32 29 32 32 31 30 29 30 30 30 29 31 30 30 31 33 34 35 36 36 35
30 32 33 36 31 28 31 32 37 35 34 31 31 33 32 32 32 30 33 36 35 33 31 33 33 33 34 32 32 30 31 31 33 32 32 34 35 37 39 40 38 40 39 39 39 35 33 28 32 33 33 31 28 30 31 30 29 29 31 33 34 36 36 36 36 37 36 32 30 34 34 33 31 31 31 31 31 32 32 32 32 32 33 35 36 36 36 34
36 35 35 38 30 32 33 34 35 33 32 33 32 32 32 32 31 33 32 32 34 32 33 29 32 33 34 34 32 31 30 28 28 33 33 32 33 34 34 37 38 39 39 38 38 37 32 29 31 33 32 32 33 33 32 30 29 28 28 28 29 31 34 35 36 36 37 36 35 35 35 35 34 34 33 33 33 33 33 32 32 31 30 31 34 35 35 33
33 33 31 38 35 35 35 34 33 32 30 32 30 33 32 32 31 32 33 32 30 31 34 31 32 33 34 34 33 30 30 30 30 31 34 33 33 33 33 34 33 37 37 36 37 31 32 28 32 31 29 31 32 32 32 30 30 30 29 29 27 28 28 30 30 31 32 32 33 34 34 34 34 33 32 31 30 31 30 29 30 31 30 30 30 28 31 34
40 41 37 33 31 35 33 33 32 31 30 31 30 32 32 32 31 33 32 35 31 31 32 31 32 34 35 33 33 32 33 32 33 34 34 33 30 33 31 33 36 36 36 34 36 34 33 28 31 29 27 26 28 29 29 30 30 30 30 29 29 28 27 28 28 29 28 28 29 29 28 29 29 31 31 30 30 31 30 30 31 31 30 29 27 25 25 33
43 45 45 35 31 34 31 31 30 29 28 30 32 32 32 32 33 31 29 32 36 34 32 34 34 33 33 33 33 33 34 35 35 36 34 32 33 34 36 35 35 34 33 34 36 32 30 28 29 28 24 23 24 26 27 28 29 27 28 29 29 28 27 27 27 28 26 26 26 26 25 27 26 27 23 23 24 24 25 25 25 26 26 24 23 24 25 30